Regional Weather Roundup
Issued by NWS Columbia, SC

Home | Current Version | Previous Version | Text Only | Print | Product List | Glossary On
Versions: 1 2 3 4 5 6 7 8 9 10 11 12 13 14 15 16 17 18 19 20 21 22 23 24 25 26 27 28 29 30 31 32 33 34 35 36 37 38 39 40 41 42 43 44 45 46 47 48 49 50
000
ASUS42 KCAE 040810
RWRCAE
REGIONAL WEATHER ROUNDUP
NATIONAL WEATHER SERVICE COLUMBIA SC
400 AM EDT TUE AUG 04 2015

NOTE: "FAIR" INDICATES FEW OR NO CLOUDS BELOW 12,000 FEET WITH NO
SIGNIFICANT WEATHER AND/OR OBSTRUCTIONS TO VISIBILITY.

NOT ALL STATIONS ARE QUALITY CONTROLLED BY THE NATIONAL
WEATHER SERVICE. USE DATA WITH CAUTION...ESPECIALLY
DEWPOINT OBSERVATIONS.

SCZ001>056-GAZ040-063>065-077-040900-
...UPSTATE SOUTH CAROLINA...

CITY           SKY/WX    TMP DP  RH WIND       PRES   REMARKS
ANDERSON       CLEAR     73  70  90 CALM      29.96S
LIBERTY        SUNNY     70  68  93 CALM      29.97S
SPARTANBURG      N/A     73  72  94 CALM      29.96S
CLEMSON        CLEAR     75  69  81 N3        29.98S
GREENVILLE     CLEAR     76  69  79 CALM      29.98S
GREENWOOD      CLEAR     71  69  93 CALM      29.96F
GREER          CLEAR     74  70  87 CALM      29.96S
ROCK HILL      CLEAR     70  69  97 CALM      29.96F
CHESTER        SUNNY     72  70  94 CALM      29.96F
LAURENS        SUNNY     70  70 100 CALM      29.95S


...CENTRAL SOUTH CAROLINA...

CITY           SKY/WX    TMP DP  RH WIND       PRES   REMARKS
COLUMBIA APT   CLEAR     76  72  87 N3        29.92S
COLUMBIA OWENS CLEAR     75  72  90 CALM      29.93F
DARLINGTON     CLEAR     73  70  88 NE3       29.96R
FLORENCE       MOCLDY    76  74  93 E6        29.94R
MCENTIRE ANGB  CLEAR     73  72  95 NE3       29.92F
ORANGEBURG     MOCLDY    76  73  91 NE7       29.91F
SUMTER SHAW    CLEAR     73  71  94 NE3       29.91S
NEWBERRY       SUNNY     68  68 100 CALM      29.97S
AIKEN          FAIR      70  68  94 CALM      29.97R
BARNWELL       PTSUNNY   73  73 100 CALM      29.92S
MANNING        HVY RAIN  72  72 100 N6        29.90F
CAMDEN         FAIR      73  72  94 CALM      29.94S
LANCASTER      SUNNY     70  70 100 CALM      29.96S
WINNSBORO      SUNNY     70  70 100 CALM      29.94F


...EASTERN AND COASTAL SOUTH CAROLINA...

CITY           SKY/WX    TMP DP  RH WIND       PRES   REMARKS
MYRTLE BEACH   CLOUDY    75  72  88 E8        29.98R THUNDER
N MYRTLE BCH   LGT RAIN  74  72  93 CALM      29.95S
CONWAY         CLOUDY    73  73 100 CALM      29.95R
MARION         PTSUNNY   77  72  83 CALM      29.95R
HARTSVILLE     FAIR      72  72 100 NE3       29.94S
FLORENCE       MOCLDY    76  74  93 E6        29.94R
DARLINGTON     CLEAR     73  70  88 NE3       29.96R
CHARLESTON APT LGT RAIN  77  75  93 NE8       29.87F
MOUNT PLEASANT RAIN      79  79 100 SE6       29.88S
WALTERBORO     CLOUDY    77  73  88 CALM      29.90R FOG
BEAUFORT       CLOUDY    77  75  93 W3        29.88F


...EASTERN GEORGIA...

CITY           SKY/WX    TMP DP  RH WIND       PRES   REMARKS
AUGUSTA BUSH F CLEAR     72  71  97 CALM      29.91S
AUGUSTA DANIEL CLEAR     75  72  90 NW3       29.93S
THOMSON        CLEAR     73  73 100 CALM      29.98S
WASHINGTON     FAIR      77  77 100 CALM      29.95S
SYLVANIA       FOG       76  76 100 CALM      29.92R VSB 3/4
STATESBORO     CLOUDY    74  32  21 CALM      29.92R
SAVANNAH       CLOUDY    75  73  94 W5        29.90S FOG


...SOUTHERN NORTH CAROLINA...

CITY           SKY/WX    TMP DP  RH WIND       PRES   REMARKS
CHARLOTTE      PTCLDY    72  68  87 CALM      29.97S
MONROE         CLEAR     70  67  90 CALM      29.96S
WADESBORO      SUNNY     70  67  90 CALM      29.95S
ROCKINGHAM     SUNNY     73  72  96 SE3       29.96R
RUTHERFORDTON  CLEAR     67  65  92 CALM      29.99S
ASHEVILLE      CLEAR     64  59  83 CALM      30.06R

$$


USA.gov is the U.S. government's official web portal to all federal, state and local government web resources and services.